SATMAR

operational
NORAD ID: 64551 Int'l Des: 2025-135 Owner: ALENSP Country: E
LEOCIRCULARRETROGRADESSO

关于 SATMAR

正在加载描述...

实时位置

正在加载3D地球...

即将过境

高度历史

Altitude vs Time

uPlot chart will show altitude changes over time

两行轨道根数

1 64551U 25135Z 26061.56282990 .00011019 00000-0 46943-3 0 9994
2 64551 97.4491 177.9039 0000342 160.9792 199.1457 15.23135623 38688
Epoch: Mar 2, 2026 • Age: 36 hours

当前状态

高度 505.0 km
速度 7.62 km/s
星下点 53.80°N, 25.82°E
发射日期 Jun 23, 2025
运行时间 0.6 years
类型 other

技术详情

分类 Payload
质量 10.00 kg
干质量 10.00 kg
总质量 10.00 kg
长度 0.30 m
直径 0.20 m
跨度 0.30 m
形状 Box
制造商 ALENSP
平台类型 Cubesat 6U
阶段状态 In Orbit
所有者/国家 ALENSP/E

大型星座

Loading constellations...